sat.trackr.live / text

‹ back to catalog

STARLINK-31591

NORAD 59207 · 2024-046G

PAYLOAD ACTIVE UNKNOWN

§ Identity

Operator
Country
US
Launch date
2024-03-11
Launch site
AFWTR
Launch vehicle
Mass (kg)
RCS (m²)

Purposes: comms

External: N2YO · Heavens-Above · Gunter

§ Orbital elements

Epoch: 2026-09-20T15:48:39.792960Z

Period
93.85 min
Inclination
53.1617°
Eccentricity
0.0002221
Mean motion
15.34403105 rev/d
Perigee alt
461.2 km
Apogee alt
464.2 km
Semi-major
6,840.8 km
B*
8.5060e-5
RAAN
325.2314°
Arg perigee
103.3693°
Mean anomaly
256.7557°
Rev number
14,296

§ Raw data

STARLINK-315911 59207U 24046G   26263.65879390  .00002498  00000+0  85060-4 0  99902 59207  53.1617 325.2314 0002221 103.3693 256.7557 15.34403105142965

JSON: /api/v1/satellites/59207 · /tle

For live sub-satellite position, see the globe view (requires WebGL).

§ Visibility from observer

Set your observer location to see the next 7 days of passes ≥ 10°. The values pass through the URL so the page stays shareable.

No JS? Fill the form by hand. The geolocation button needs JavaScript.